QPF
0.01 0.01 0.01 0.01 0.01 0.01 0.01 0.02 0.03 0.03 0.02 0.01 0.02 0.02 0.03 0.05 0.08 0.06 0.04 0.04 0.05 0.06 0.06 0.06 0.06 0.06 0.05 0.05 0.07 0.07 0.08 0.07 0.06 0.05 0.05 0.07 0.08 0.07
0.01 0.01 0.01 0.01 0.01 0.01 0.01 0.02 0.02 0.03 0.03 0.02 0.01 0.02 0.03 0.04 0.06 0.08 0.07 0.07 0.06 0.05 0.05 0.06 0.06 0.06 0.05 0.05 0.06 0.07 0.07 0.07 0.07 0.06 0.05 0.04 0.06 0.08
0.01 0.01 0.01 0.01 0.01 0.01 0.02 0.03 0.03 0.04 0.04 0.02 0.02 0.02 0.03 0.03 0.03 0.04 0.07 0.07 0.06 0.05 0.05 0.05 0.05 0.05 0.04 0.04 0.05 0.07 0.07 0.07 0.06 0.07 0.06 0.04 0.05 0.06
0.02 0.01 0.01 0.01 0.01 0.01 0.02 0.02 0.03 0.03 0.04 0.04 0.03 0.03 0.03 0.03 0.03 0.03 0.04 0.06 0.07 0.07 0.05 0.04 0.04 0.05 0.05 0.05 0.05 0.06 0.07 0.07 0.06 0.05 0.06 0.05 0.04 0.05
0.03 0.02 0.02 0.01 0.02 0.02 0.02 0.02 0.03 0.03 0.04 0.04 0.03 0.03 0.03 0.03 0.03 0.04 0.04 0.05 0.07 0.08 0.08 0.07 0.06 0.05 0.05 0.05 0.05 0.05 0.06 0.07 0.07 0.05 0.04 0.05 0.04 0.04
0.04 0.04 0.04 0.04 0.04 0.03 0.03 0.03 0.03 0.04 0.05 0.05 0.04 0.04 0.04 0.04 0.04 0.05 0.05 0.05 0.06 0.08 0.09 0.10 0.11 0.09 0.07 0.06 0.05 0.04 0.05 0.06 0.07 0.06 0.05 0.04 0.04 0.03
0.04 0.04 0.04 0.04 0.04 0.04 0.04 0.04 0.05 0.05 0.06 0.06 0.05 0.05 0.05 0.06 0.05 0.04 0.04 0.05 0.05 0.06 0.07 0.08 0.09 0.09 0.08 0.06 0.05 0.05 0.05 0.06 0.06 0.06 0.06 0.04 0.03 0.04
0.08 0.06 0.04 0.04 0.04 0.04 0.04 0.04 0.05 0.05 0.05 0.05 0.04 0.04 0.03 0.04 0.04 0.03 0.03 0.04 0.05 0.05 0.04 0.06 0.06 0.06 0.06 0.05 0.05 0.04 0.04 0.05 0.06 0.06 0.06 0.05 0.03 0.04
0.06 0.08 0.08 0.06 0.04 0.03 0.03 0.04 0.03 0.03 0.03 0.04 0.04 0.03 0.03 0.03 0.04 0.05 0.05 0.05 0.06 0.06 0.05 0.06 0.05 0.04 0.04 0.05 0.05 0.04 0.04 0.04 0.05 0.06 0.07 0.06 0.04 0.03
0.02 0.03 0.04 0.05 0.06 0.04 0.04 0.03 0.02 0.02 0.02 0.02 0.03 0.03 0.04 0.04 0.05 0.07 0.07 0.08 0.08 0.08 0.07 0.06 0.05 0.05 0.04 0.04 0.06 0.06 0.05 0.05 0.05 0.05 0.06 0.07 0.05 0.03
0.01 0.01 0.01 0.01 0.03 0.04 0.05 0.05 0.04 0.03 0.02 0.03 0.03 0.04 0.05 0.06 0.07 0.10 0.11 0.11 0.09 0.07 0.07 0.06 0.06 0.06 0.05 0.04 0.05 0.06 0.06 0.07 0.06 0.06 0.06 0.06 0.05 0.03
0.01 0.01 0.01 0.02 0.03 0.04 0.04 0.04 0.05 0.05 0.04 0.03 0.04 0.05 0.05 0.06 0.08 0.09 0.11 0.13 0.11 0.09 0.06 0.06 0.07 0.07 0.07 0.06 0.05 0.05 0.06 0.07 0.07 0.06 0.05 0.05 0.05 0.04
0.01 0.01 0.01 0.02 0.03 0.03 0.04 0.04 0.04 0.05 0.06 0.06 0.07 0.07 0.07 0.06 0.06 0.07 0.07 0.10 0.12 0.10 0.07 0.07 0.08 0.08 0.08 0.07 0.06 0.06 0.07 0.07 0.07 0.07 0.06 0.05 0.04 0.04
0.02 0.02 0.02 0.02 0.02 0.03 0.03 0.03 0.04 0.05 0.05 0.04 0.05 0.05 0.05 0.06 0.05 0.05 0.05 0.05 0.06 0.06 0.06 0.07 0.07 0.07 0.07 0.07 0.07 0.06 0.06 0.06 0.06 0.06 0.06 0.06 0.04 0.04
0.02 0.03 0.02 0.02 0.02 0.02 0.03 0.03 0.03 0.04 0.03 0.03 0.03 0.03 0.03 0.04 0.04 0.04 0.05 0.05 0.04 0.04 0.04 0.05 0.05 0.06 0.07 0.07 0.06 0.06 0.06 0.06 0.05 0.05 0.06 0.06 0.05 0.04
0.02 0.02 0.02 0.02 0.02 0.02 0.02 0.03 0.03 0.03 0.03 0.03 0.03 0.03 0.03 0.03 0.03 0.03 0.03 0.04 0.04 0.03 0.03 0.03 0.04 0.04 0.05 0.05 0.05 0.06 0.06 0.07 0.06 0.05 0.05 0.05 0.05 0.05
0.03 0.03 0.02 0.02 0.02 0.02 0.03 0.03 0.03 0.03 0.03 0.03 0.03 0.03 0.03 0.03 0.03 0.02 0.03 0.03 0.03 0.03 0.03 0.02 0.03 0.04 0.05 0.06 0.07 0.07 0.06 0.07 0.06 0.05 0.05 0.05 0.05 0.05
0.03 0.03 0.03 0.02 0.03 0.03 0.03 0.03 0.03 0.03 0.03 0.03 0.03 0.03 0.04 0.03 0.03 0.03 0.03 0.03 0.04 0.03 0.03 0.03 0.03 0.04 0.05 0.06 0.06 0.06 0.06 0.06 0.05 0.05 0.05 0.05 0.06 0.06
0.03 0.03 0.02 0.02 0.02 0.02 0.02 0.02 0.03 0.03 0.03 0.03 0.03 0.03 0.04 0.03 0.03 0.03 0.03 0.04 0.04 0.04 0.04 0.04 0.04 0.04 0.05 0.06 0.06 0.05 0.05 0.06 0.06 0.05 0.05 0.05 0.06 0.06
0.02 0.02 0.02 0.02 0.02 0.02 0.02 0.02 0.02 0.02 0.03 0.03 0.03 0.03 0.04 0.04 0.04 0.04 0.04 0.04 0.04 0.04 0.04 0.04 0.04 0.04 0.05 0.05 0.06 0.06 0.05 0.06 0.06 0.06 0.07 0.07 0.06 0.06
0.02 0.02 0.02 0.02 0.02 0.02 0.02 0.02 0.02 0.02 0.02 0.03 0.03 0.04 0.04 0.04 0.04 0.04 0.04 0.04 0.04 0.03 0.03 0.04 0.04 0.04 0.04 0.05 0.06 0.07 0.07 0.06 0.05 0.05 0.06 0.07 0.07 0.06
0.02 0.02 0.02 0.02 0.02 0.02 0.02 0.02 0.02 0.02 0.03 0.03 0.03 0.04 0.04 0.04 0.04 0.04 0.04 0.04 0.03 0.03 0.03 0.03 0.03 0.04 0.04 0.05 0.05 0.06 0.07 0.07 0.07 0.07 0.07 0.06 0.06 0.07
0.04 0.04 0.03 0.02 0.02 0.03 0.03 0.03 0.03 0.03 0.03 0.03 0.04 0.05 0.05 0.06 0.05 0.05 0.04 0.03 0.03 0.03 0.03 0.03 0.03 0.03 0.04 0.04 0.05 0.06 0.06 0.07 0.07 0.08 0.08 0.07 0.06 0.06
MSLP
1009.39 1010.34 1011.31 1012.25 1013.12 1013.89 1014.58 1015.19 1015.75 1016.29 1016.84 1017.40 1017.99 1018.59 1019.18 1019.73 1020.22 1020.65 1021.02 1021.34 1021.65 1021.97 1022.32 1022.72 1023.16 1023.63 1024.09 1024.51 1024.85 1025.10 1025.24 1025.28 1025.24 1025.16 1025.05 1024.95 1024.88 1024.84
1008.33 1009.26 1010.21 1011.14 1012.02 1012.82 1013.55 1014.20 1014.82 1015.42 1016.04 1016.68 1017.35 1018.02 1018.68 1019.29 1019.84 1020.31 1020.71 1021.06 1021.37 1021.70 1022.04 1022.44 1022.88 1023.34 1023.81 1024.24 1024.61 1024.88 1025.06 1025.15 1025.16 1025.11 1025.04 1024.98 1024.93 1024.91
1007.35 1008.21 1009.12 1010.03 1010.90 1011.71 1012.47 1013.17 1013.85 1014.53 1015.23 1015.96 1016.71 1017.47 1018.20 1018.88 1019.49 1020.00 1020.44 1020.80 1021.12 1021.43 1021.76 1022.13 1022.54 1022.99 1023.43 1023.86 1024.24 1024.54 1024.76 1024.89 1024.95 1024.96 1024.95 1024.93 1024.91 1024.92
1006.45 1007.21 1008.05 1008.91 1009.76 1010.58 1011.36 1012.11 1012.86 1013.61 1014.39 1015.21 1016.04 1016.88 1017.68 1018.43 1019.09 1019.65 1020.12 1020.50 1020.82 1021.12 1021.43 1021.76 1022.14 1022.54 1022.96 1023.38 1023.76 1024.08 1024.34 1024.53 1024.66 1024.73 1024.78 1024.82 1024.86 1024.90
1005.64 1006.29 1007.03 1007.81 1008.62 1009.43 1010.22 1011.01 1011.81 1012.63 1013.48 1014.37 1015.28 1016.18 1017.05 1017.86 1018.57 1019.18 1019.67 1020.07 1020.40 1020.70 1020.99 1021.29 1021.63 1022.00 1022.39 1022.79 1023.18 1023.52 1023.83 1024.07 1024.27 1024.43 1024.56 1024.67 1024.76 1024.84
1004.94 1005.44 1006.06 1006.75 1007.50 1008.27 1009.05 1009.86 1010.69 1011.55 1012.46 1013.39 1014.35 1015.31 1016.23 1017.08 1017.83 1018.48 1019.02 1019.45 1019.80 1020.11 1020.39 1020.69 1021.00 1021.35 1021.72 1022.11 1022.50 1022.87 1023.22 1023.53 1023.81 1024.05 1024.26 1024.44 1024.60 1024.74
1004.34 1004.69 1005.17 1005.75 1006.40 1007.11 1007.87 1008.66 1009.49 1010.37 1011.29 1012.25 1013.23 1014.21 1015.16 1016.04 1016.84 1017.53 1018.11 1018.59 1018.98 1019.32 1019.63 1019.93 1020.25 1020.58 1020.95 1021.33 1021.73 1022.13 1022.52 1022.89 1023.24 1023.56 1023.86 1024.13 1024.36 1024.55
1003.85 1004.04 1004.38 1004.83 1005.38 1006.00 1006.69 1007.44 1008.24 1009.10 1010.00 1010.95 1011.92 1012.90 1013.85 1014.75 1015.57 1016.31 1016.94 1017.49 1017.94 1018.34 1018.70 1019.03 1019.37 1019.72 1020.09 1020.48 1020.89 1021.31 1021.73 1022.15 1022.56 1022.95 1023.33 1023.67 1023.97 1024.24
1003.46 1003.51 1003.70 1004.02 1004.45 1004.98 1005.58 1006.25 1006.99 1007.79 1008.64 1009.53 1010.47 1011.41 1012.35 1013.25 1014.10 1014.87 1015.57 1016.19 1016.73 1017.20 1017.63 1018.03 1018.41 1018.79 1019.17 1019.57 1019.98 1020.41 1020.85 1021.30 1021.75 1022.20 1022.63 1023.04 1023.42 1023.75
1003.18 1003.10 1003.16 1003.36 1003.67 1004.08 1004.58 1005.16 1005.80 1006.51 1007.28 1008.10 1008.96 1009.85 1010.75 1011.64 1012.50 1013.32 1014.08 1014.77 1015.40 1015.97 1016.49 1016.96 1017.39 1017.81 1018.21 1018.61 1019.02 1019.44 1019.88 1020.34 1020.81 1021.29 1021.77 1022.24 1022.68 1023.08
1002.99 1002.82 1002.78 1002.87 1003.07 1003.37 1003.76 1004.23 1004.76 1005.36 1006.02 1006.74 1007.51 1008.32 1009.17 1010.03 1010.89 1011.74 1012.55 1013.33 1014.05 1014.71 1015.31 1015.86 1016.35 1016.81 1017.23 1017.64 1018.03 1018.44 1018.86 1019.31 1019.78 1020.27 1020.78 1021.29 1021.79 1022.25
1002.89 1002.66 1002.55 1002.55 1002.66 1002.86 1003.14 1003.49 1003.91 1004.39 1004.93 1005.53 1006.20 1006.92 1007.70 1008.52 1009.37 1010.23 1011.09 1011.92 1012.72 1013.46 1014.15 1014.76 1015.32 1015.81 1016.25 1016.65 1017.04 1017.42 1017.82 1018.24 1018.70 1019.19 1019.71 1020.24 1020.78 1021.31
1002.86 1002.61 1002.46 1002.41 1002.44 1002.55 1002.73 1002.97 1003.27 1003.63 1004.04 1004.53 1005.08 1005.71 1006.41 1007.17 1007.99 1008.84 1009.71 1010.59 1011.44 1012.25 1013.00 1013.67 1014.28 1014.80 1015.26 1015.67 1016.04 1016.40 1016.77 1017.17 1017.61 1018.09 1018.61 1019.17 1019.74 1020.30
1002.87 1002.63 1002.47 1002.38 1002.36 1002.40 1002.49 1002.63 1002.81 1003.05 1003.35 1003.71 1004.16 1004.68 1005.29 1005.99 1006.75 1007.58 1008.45 1009.34 1010.22 1011.06 1011.86 1012.58 1013.22 1013.78 1014.26 1014.67 1015.04 1015.39 1015.75 1016.13 1016.55 1017.03 1017.55 1018.11 1018.70 1019.29
1002.87 1002.67 1002.51 1002.41 1002.35 1002.32 1002.34 1002.38 1002.47 1002.60 1002.78 1003.04 1003.37 1003.80 1004.32 1004.93 1005.63 1006.42 1007.25 1008.13 1009.01 1009.88 1010.70 1011.45 1012.13 1012.71 1013.22 1013.66 1014.04 1014.40 1014.76 1015.14 1015.56 1016.03 1016.55 1017.11 1017.71 1018.32
1002.82 1002.65 1002.51 1002.39 1002.30 1002.23 1002.17 1002.14 1002.13 1002.17 1002.26 1002.41 1002.65 1002.98 1003.41 1003.95 1004.58 1005.30 1006.09 1006.93 1007.80 1008.66 1009.49 1010.27 1010.97 1011.59 1012.14 1012.61 1013.03 1013.42 1013.80 1014.19 1014.62 1015.09 1015.61 1016.18 1016.77 1017.38
1002.64 1002.50 1002.37 1002.25 1002.13 1002.01 1001.89 1001.79 1001.71 1001.67 1001.68 1001.75 1001.91 1002.16 1002.51 1002.96 1003.52 1004.18 1004.91 1005.71 1006.55 1007.39 1008.22 1009.01 1009.75 1010.41 1011.00 1011.53 1012.00 1012.43 1012.86 1013.28 1013.74 1014.22 1014.75 1015.30 1015.88 1016.47
1002.29 1002.17 1002.04 1001.90 1001.75 1001.59 1001.42 1001.26 1001.13 1001.03 1000.97 1000.98 1001.07 1001.26 1001.54 1001.93 1002.42 1003.01 1003.69 1004.44 1005.24 1006.07 1006.89 1007.70 1008.47 1009.18 1009.82 1010.41 1010.95 1011.45 1011.92 1012.40 1012.88 1013.39 1013.91 1014.46 1015.03 1015.59
1001.74 1001.61 1001.47 1001.30 1001.12 1000.92 1000.71 1000.51 1000.33 1000.19 1000.09 1000.06 1000.11 1000.24 1000.48 1000.81 1001.25 1001.78 1002.41 1003.12 1003.89 1004.70 1005.53 1006.35 1007.15 1007.91 1008.62 1009.28 1009.89 1010.46 1011.00 1011.52 1012.04 1012.57 1013.10 1013.65 1014.19 1014.73
1000.99 1000.84 1000.67 1000.47 1000.25 1000.01 999.76 999.53 999.32 999.15 999.03 998.97 998.99 999.11 999.31 999.60 1000.00 1000.50 1001.09 1001.76 1002.51 1003.31 1004.15 1004.99 1005.83 1006.65 1007.42 1008.15 1008.83 1009.47 1010.07 1010.65 1011.21 1011.76 1012.30 1012.84 1013.38 1013.90
1000.10 999.90 999.68 999.43 999.16 998.88 998.60 998.34 998.11 997.92 997.79 997.73 997.74 997.84 998.03 998.30 998.68 999.15 999.72 1000.38 1001.12 1001.92 1002.77 1003.65 1004.53 1005.40 1006.24 1007.04 1007.79 1008.49 1009.15 1009.78 1010.37 1010.95 1011.51 1012.06 1012.59 1013.10
999.10 998.84 998.55 998.24 997.92 997.59 997.27 996.99 996.74 996.54 996.41 996.35 996.36 996.46 996.64 996.91 997.28 997.75 998.31 998.96 999.71 1000.53 1001.40 1002.32 1003.25 1004.17 1005.07 1005.94 1006.75 1007.52 1008.23 1008.90 1009.54 1010.14 1010.73 1011.29 1011.84 1012.37
998.08 997.73 997.35 996.97 996.58 996.19 995.83 995.51 995.25 995.04 994.91 994.84 994.86 994.96 995.15 995.42 995.79 996.26 996.82 997.49 998.26 999.10 1000.01 1000.97 1001.95 1002.94 1003.90 1004.83 1005.70 1006.52 1007.29 1008.01 1008.68 1009.32 1009.94 1010.54 1011.12 1011.68
Thickness
5516 5515 5515 5514 5513 5512 5512 5511 5510 5514 5521 5521 5518 5519 5518 5519 5520 5520 5521 5521 5522 5522 5522 5523 5523 5524 5524 5524 5525 5526 5527 5527 5527 5528 5529 5530 5532 5533
5505 5505 5505 5504 5503 5502 5501 5500 5500 5500 5506 5510 5507 5507 5507 5508 5509 5509 5510 5511 5512 5512 5512 5513 5513 5513 5514 5514 5514 5515 5516 5516 5516 5518 5519 5521 5521 5523
5494 5494 5494 5493 5492 5491 5490 5490 5489 5488 5491 5497 5496 5496 5496 5497 5498 5499 5500 5501 5502 5502 5502 5503 5503 5503 5504 5504 5504 5504 5506 5506 5507 5507 5509 5511 5511 5513
5483 5483 5483 5482 5482 5481 5480 5479 5479 5479 5479 5482 5485 5484 5485 5486 5487 5487 5489 5490 5491 5492 5492 5493 5494 5494 5494 5494 5493 5494 5495 5496 5496 5497 5499 5501 5501 5502
5473 5473 5472 5472 5472 5471 5470 5470 5470 5470 5469 5470 5474 5473 5473 5474 5474 5475 5477 5478 5479 5481 5481 5482 5483 5483 5483 5483 5483 5483 5484 5485 5486 5486 5487 5489 5490 5491
5462 5463 5462 5462 5461 5461 5462 5461 5460 5460 5460 5460 5462 5463 5463 5462 5462 5463 5465 5466 5468 5469 5469 5471 5472 5473 5472 5472 5473 5473 5473 5473 5474 5475 5476 5477 5479 5480
5452 5451 5451 5451 5452 5452 5452 5452 5451 5450 5451 5451 5452 5452 5452 5451 5451 5452 5453 5454 5456 5458 5458 5460 5461 5461 5461 5461 5461 5462 5462 5463 5463 5464 5465 5467 5468 5469
5440 5439 5440 5440 5440 5441 5441 5441 5441 5441 5441 5441 5442 5442 5443 5442 5441 5441 5440 5441 5445 5447 5447 5449 5449 5449 5449 5450 5451 5451 5451 5452 5453 5454 5455 5456 5458 5459
5428 5428 5428 5429 5429 5429 5430 5430 5430 5430 5431 5431 5431 5432 5432 5432 5430 5430 5429 5430 5434 5436 5434 5437 5437 5437 5438 5438 5439 5440 5441 5442 5442 5444 5445 5446 5448 5449
5417 5417 5416 5417 5418 5418 5419 5419 5420 5420 5420 5420 5421 5422 5421 5421 5420 5419 5419 5418 5420 5423 5424 5424 5425 5426 5427 5428 5428 5428 5429 5431 5432 5433 5435 5436 5438 5440
5407 5406 5406 5407 5408 5408 5408 5408 5409 5409 5408 5409 5410 5410 5410 5410 5409 5407 5406 5406 5408 5410 5411 5410 5412 5413 5415 5417 5417 5417 5418 5420 5421 5423 5425 5426 5428 5430
5397 5396 5397 5398 5398 5398 5396 5396 5397 5397 5397 5398 5397 5397 5396 5397 5397 5396 5396 5395 5396 5398 5399 5398 5399 5398 5401 5405 5406 5406 5408 5409 5411 5412 5414 5416 5419 5420
5386 5387 5387 5387 5388 5387 5386 5385 5386 5386 5386 5386 5385 5385 5385 5385 5386 5385 5385 5386 5386 5388 5389 5388 5388 5387 5388 5391 5395 5396 5397 5399 5401 5402 5403 5406 5408 5410
5377 5377 5376 5377 5377 5377 5376 5376 5376 5375 5374 5374 5374 5374 5374 5375 5375 5375 5376 5376 5377 5379 5380 5379 5379 5379 5379 5380 5383 5386 5387 5388 5390 5392 5394 5396 5398 5400
5367 5368 5367 5367 5366 5366 5366 5365 5364 5363 5362 5362 5363 5363 5364 5365 5365 5365 5366 5367 5367 5369 5370 5371 5372 5372 5372 5373 5375 5376 5377 5379 5381 5383 5384 5386 5389 5391
5357 5357 5357 5356 5355 5355 5355 5354 5352 5351 5351 5351 5352 5353 5354 5354 5355 5356 5357 5357 5358 5360 5361 5363 5364 5365 5365 5366 5367 5368 5368 5369 5372 5373 5375 5377 5380 5382
5347 5346 5346 5345 5345 5344 5344 5343 5342 5341 5341 5342 5342 5343 5344 5345 5346 5346 5347 5348 5349 5351 5353 5354 5355 5356 5357 5358 5358 5360 5360 5361 5363 5365 5367 5370 5372 5374
5337 5336 5336 5335 5334 5333 5333 5333 5332 5332 5332 5332 5333 5334 5335 5336 5337 5338 5339 5340 5342 5343 5344 5345 5346 5347 5347 5349 5351 5353 5353 5354 5356 5357 5359 5362 5366 5369
5327 5326 5325 5324 5324 5323 5323 5323 5323 5323 5322 5323 5324 5326 5327 5328 5329 5330 5332 5333 5335 5336 5336 5337 5338 5339 5341 5343 5345 5346 5347 5348 5349 5351 5353 5356 5359 5363
5318 5317 5317 5316 5315 5315 5314 5314 5314 5314 5315 5316 5317 5318 5319 5321 5322 5324 5325 5327 5328 5329 5330 5330 5331 5333 5335 5336 5337 5339 5341 5342 5344 5346 5348 5350 5352 5355
5312 5310 5309 5309 5308 5307 5307 5307 5307 5308 5308 5309 5310 5311 5312 5314 5316 5318 5319 5321 5322 5324 5325 5326 5326 5328 5328 5328 5329 5332 5335 5337 5340 5341 5344 5345 5347 5348
5305 5304 5303 5303 5302 5302 5301 5302 5302 5302 5303 5303 5305 5306 5307 5308 5310 5312 5313 5315 5317 5318 5320 5321 5321 5322 5322 5323 5325 5327 5330 5333 5335 5337 5339 5342 5342 5343
5299 5298 5298 5297 5297 5297 5297 5297 5297 5298 5298 5299 5300 5301 5302 5304 5306 5307 5308 5310 5311 5312 5313 5314 5315 5316 5316 5317 5319 5321 5324 5327 5330 5332 5334 5336 5338 5339